SCP
1 2 2 2 2 1 1 1 1 1 1 1 1 1 1 1 1 1 1 1 1 1 1 1 1 1 0 0 0 0 0 0 0 0 0 0 1 1 1 1 1 1 1
1 2 2 2 2 1 1 1 1 1 1 1 1 1 1 1 1 1 1 1 1 1 1 1 1 1 0 0 0 0 0 0 0 0 0 0 0 1 1 1 1 1 1
2 2 1 1 1 1 1 1 1 1 1 1 1 0 1 1 1 1 1 1 1 1 1 1 1 1 0 0 0 0 0 0 0 0 0 0 0 0 0 1 1 1 1
2 1 1 1 1 1 1 1 1 1 1 1 1 1 1 1 1 1 1 1 1 1 1 1 1 1 0 0 0 0 0 0 0 0 0 0 0 0 0 0 0 0 0
1 1 1 1 1 1 1 1 1 1 1 1 1 1 1 1 1 1 1 1 1 1 1 1 1 1 0 0 1 1 0 0 0 0 0 0 0 0 0 0 0 0 0
1 1 1 1 1 1 1 1 1 1 1 1 1 1 1 1 1 1 1 1 1 1 1 1 1 1 1 1 1 0 0 0 0 0 0 0 0 0 0 0 0 0 0
0 0 0 0 1 1 1 1 1 1 1 1 1 1 1 1 1 1 1 1 0 1 1 1 1 1 1 1 1 0 0 0 0 0 0 0 0 0 0 0 0 0 0
0 0 0 0 1 1 1 1 1 1 1 1 1 1 1 1 1 1 1 1 1 1 1 1 1 1 1 1 0 0 0 0 0 0 0 0 1 1 1 0 0 0 0
0 0 0 0 0 1 1 1 1 1 1 1 1 1 1 1 1 1 1 1 1 1 1 1 1 1 1 1 0 0 1 0 0 0 0 1 1 1 0 0 0 0 0
1 0 0 0 0 1 1 1 1 1 1 1 1 1 1 1 1 1 2 2 1 1 1 1 1 1 1 0 0 1 1 0 0 0 1 1 1 1 0 0 1 1 1
1 0 0 0 0 0 1 1 1 1 1 1 1 1 1 2 2 2 2 2 1 1 1 1 1 1 1 0 0 0 0 0 0 0 1 1 1 1 1 1 1 1 1
1 0 0 0 0 0 0 0 1 1 1 1 1 1 1 2 2 2 2 2 1 1 1 1 1 1 1 0 0 0 0 0 0 0 0 1 0 1 1 1 1 1 0
0 0 1 1 1 1 0 0 1 1 1 2 2 2 1 2 2 2 2 1 1 1 1 1 1 1 1 1 1 0 0 0 0 0 0 0 0 1 1 1 1 1 0
0 1 1 1 1 1 1 1 1 1 2 2 2 2 1 1 2 2 2 1 1 1 1 1 1 1 1 1 1 1 0 0 0 0 0 0 0 1 1 1 1 1 1
1 1 1 1 1 1 1 1 1 1 2 3 2 2 1 2 2 2 1 1 1 1 1 1 1 1 1 1 1 1 0 0 0 0 0 0 1 1 1 1 1 2 1
1 1 1 1 1 1 1 1 1 2 3 3 2 2 2 2 2 2 1 1 1 1 1 1 1 1 1 1 1 1 0 0 0 0 0 1 1 1 1 1 1 1 2
1 1 1 1 1 1 2 2 2 3 3 2 1 1 2 2 2 1 1 1 1 0 1 1 1 1 1 1 0 0 0 0 0 0 0 1 1 1 1 1 1 1 1
1 1 1 1 1 2 2 3 3 3 3 2 1 1 1 1 1 1 1 1 0 0 1 1 1 1 1 0 0 0 0 0 0 0 0 1 1 1 1 1 1 1 1
1 1 1 1 1 2 3 3 4 4 3 2 1 0 0 0 1 1 1 1 1 1 1 1 1 1 1 0 0 0 0 0 0 0 1 1 1 1 1 1 1 1 1
1 1 1 1 2 3 4 4 4 4 3 2 1 0 0 0 1 1 1 1 1 1 1 1 1 1 1 0 0 0 0 0 0 0 1 1 1 1 1 1 1 1 1
1 1 1 2 3 4 5 5 4 4 3 2 1 1 1 1 1 1 1 1 1 1 1 1 1 1 1 0 0 0 1 1 1 1 1 1 1 1 1 1 1 1 1
1 1 1 2 3 4 5 5 5 4 2 2 1 1 1 1 1 1 1 1 1 1 1 1 1 1 1 0 1 1 1 1 1 1 1 1 1 0 0 1 1 1 1
1 1 1 2 2 4 5 5 5 3 2 2 2 1 1 1 1 1 1 1 2 1 1 1 1 1 1 0 1 1 1 1 1 1 1 1 1 1 0 1 1 1 1
1 1 2 2 3 4 5 5 4 3 2 2 2 2 2 2 2 1 1 1 2 2 2 1 1 1 1 1 1 1 1 0 1 1 1 1 1 1 1 1 1 1 1
1 2 2 4 5 5 5 4 3 2 2 3 3 3 3 2 2 1 1 1 1 2 1 1 1 1 1 1 1 1 1 0 0 1 1 1 1 1 1 1 1 1 1
2 2 3 5 6 6 5 4 2 2 3 3 3 2 2 3 2 2 1 1 1 1 1 1 1 1 1 1 0 1 1 0 0 0 1 1 1 1 1 1 1 1 1
Wind_Speed
6 8 9 7 8 10 11 10 10 10 9 9 9 9 9 9 9 9 9 10 10 10 10 10 11 10 10 10 10 11 10 10 10 10 10 10 9 9 9 8 8 9 12
8 9 10 8 9 10 10 10 10 10 9 9 9 9 8 9 8 8 9 9 9 9 9 10 9 9 9 9 10 10 9 9 9 9 9 10 9 8 8 6 4 8 10
8 9 10 9 9 10 9 10 9 9 8 8 8 8 8 8 8 8 8 9 9 9 10 9 9 9 9 9 9 9 9 8 8 8 7 7 9 9 7 7 9 10 9
9 9 10 11 9 9 9 9 9 9 8 8 8 8 8 8 8 8 8 9 9 9 9 9 9 8 8 8 8 8 8 7 6 6 5 5 7 11 8 8 8 9 9
9 9 11 10 9 9 9 8 8 8 8 8 8 8 8 7 7 8 8 8 8 8 8 8 8 8 8 8 7 7 7 6 4 6 4 5 6 10 8 8 8 8 8
9 9 12 9 8 8 8 8 7 7 7 7 8 8 7 7 7 7 7 7 7 7 8 8 7 7 7 7 6 6 5 5 6 4 4 4 6 9 8 7 7 7 8
9 9 11 9 8 7 7 7 6 6 6 7 7 7 7 7 6 6 7 7 6 7 7 7 7 6 6 6 6 5 4 3 3 3 4 4 7 8 7 7 7 7 7
9 9 10 10 7 6 6 5 5 5 5 6 6 6 7 7 6 6 6 7 7 6 6 6 6 6 6 5 5 4 3 4 4 3 3 5 9 7 7 7 7 7 7
8 8 8 9 8 7 6 5 5 5 5 6 6 6 7 7 7 6 6 6 6 6 6 6 6 6 6 5 4 4 3 3 3 3 3 5 8 6 7 7 7 7 7
7 7 7 6 6 6 7 7 5 6 6 6 6 6 6 7 7 7 7 6 5 6 6 6 6 6 6 5 4 4 3 5 3 3 3 8 8 6 6 6 6 6 6
7 6 5 6 5 4 5 7 6 7 7 6 7 7 6 4 5 6 7 6 5 5 5 5 5 6 6 7 6 4 4 3 3 2 4 10 7 6 6 5 5 6 6
8 7 5 5 5 4 4 4 4 4 5 4 4 4 4 3 3 4 8 6 6 5 6 6 5 7 6 5 7 7 2 2 2 3 7 9 6 6 6 5 5 5 5
8 7 6 5 4 4 3 2 2 2 3 4 5 4 3 3 3 3 3 6 6 6 4 6 5 3 2 2 2 2 2 1 1 2 7 8 6 5 5 5 5 5 5
7 7 6 6 4 3 2 2 2 2 3 3 4 3 3 2 2 2 2 2 2 2 2 2 2 3 2 2 2 2 2 1 2 2 6 7 5 4 5 5 5 5 5
7 7 6 5 5 3 2 1 2 2 3 4 3 3 2 2 2 3 2 1 2 2 3 2 2 3 3 3 2 3 2 1 1 1 5 7 5 4 4 5 5 5 5
6 6 6 6 6 4 3 2 2 2 2 3 3 3 2 2 2 2 2 2 1 2 1 1 3 3 2 2 2 2 2 2 2 1 3 7 7 5 4 4 4 4 4
7 6 6 6 6 5 4 3 2 2 3 2 3 3 2 2 3 2 2 2 2 2 2 2 3 2 2 3 3 2 2 1 2 2 2 2 5 7 5 4 3 4 4
7 7 6 5 6 6 4 3 2 2 3 2 2 3 2 2 3 2 2 2 2 2 2 2 2 2 2 1 2 2 2 2 2 2 2 2 1 3 6 5 3 3 3
8 7 7 6 6 6 5 4 3 3 2 2 2 2 3 3 3 2 2 2 1 1 1 1 2 1 2 1 1 2 1 2 2 2 2 2 2 1 2 7 6 3 3
8 8 8 7 7 6 5 4 3 3 3 2 2 2 3 3 2 1 2 2 1 1 1 2 2 1 1 1 1 1 1 2 2 2 2 2 2 2 2 2 4 5 5
9 9 9 8 8 6 5 4 4 4 3 3 2 3 3 2 2 1 1 2 0 1 1 1 1 2 1 1 2 2 2 3 2 2 2 1 2 2 2 2 2 1 4
11 10 10 9 9 8 5 4 3 3 3 3 2 3 2 3 2 2 1 2 1 2 2 2 1 1 1 1 2 2 2 3 3 2 2 2 1 2 2 2 2 1 2
12 12 10 10 9 8 7 5 4 4 3 4 4 3 3 3 3 1 2 1 1 1 2 2 2 2 1 1 1 2 2 1 2 3 2 2 1 1 1 1 2 1 2
13 12 11 10 10 9 8 7 7 5 5 4 4 3 4 4 3 3 3 2 1 1 2 2 2 1 2 2 1 1 3 3 2 2 3 2 2 2 1 2 1 2 2
12 11 11 10 10 9 9 8 7 6 5 4 4 5 4 4 4 4 3 3 2 1 1 1 1 2 2 2 1 1 1 1 3 3 1 1 1 1 1 2 2 1 1
12 11 11 11 10 10 9 9 8 6 5 5 5 5 5 4 4 5 4 3 3 2 2 2 2 3 2 1 2 2 2 2 2 2 2 2 1 1 1 1 2 2 2
Wind_Direction
127 120 120 117 113 116 117 118 119 118 117 118 119 116 114 117 119 124 125 125 123 120 120 119 119 119 120 120 120 120 120 121 122 124 123 121 121 122 125 134 151 132 124
122 120 118 116 111 113 114 113 114 114 115 118 122 120 117 115 113 119 126 127 124 124 125 120 121 122 122 121 118 118 119 122 123 128 132 132 127 125 127 126 99 107 124
122 122 127 117 114 112 111 109 111 113 116 119 122 120 118 117 116 119 127 129 126 123 124 122 122 122 120 117 115 115 116 120 125 139 164 148 127 126 123 118 115 125 129
122 123 118 116 117 114 110 108 109 112 114 116 118 117 120 120 116 116 118 126 128 127 125 125 123 123 122 119 116 115 118 121 133 179 179 127 121 118 122 123 127 130 133
122 120 114 120 117 114 111 108 108 109 111 112 114 115 117 120 118 118 117 121 126 129 127 125 127 126 125 122 121 120 120 127 161 216 127 115 114 121 127 132 134 137 138
124 121 114 118 116 113 111 110 109 108 110 113 114 110 110 113 116 119 120 120 123 128 127 128 131 129 126 124 124 125 124 147 205 160 125 133 118 124 136 141 141 141 141
124 120 117 116 115 112 110 111 114 115 116 117 116 113 110 111 115 122 123 120 120 123 128 131 131 130 130 128 127 128 133 187 220 133 134 129 106 126 143 146 145 144 147
122 121 120 123 121 117 122 125 125 126 125 124 122 123 118 115 120 126 121 118 116 121 126 127 132 134 135 135 135 137 152 236 181 137 132 108 105 131 141 144 147 151 153
122 123 125 132 135 135 130 126 125 127 121 124 127 122 118 116 119 126 124 122 120 123 126 132 133 137 137 135 136 140 165 254 237 144 139 109 117 138 144 146 147 150 154
125 123 120 126 126 138 135 127 121 124 125 127 124 119 123 134 138 141 147 133 132 129 130 133 135 134 134 136 136 140 175 222 205 152 123 107 123 139 145 150 154 157 158
132 131 126 126 129 129 119 122 138 142 140 150 140 138 157 146 136 150 118 127 134 131 130 135 141 143 151 154 152 157 199 212 142 128 97 102 128 142 149 152 159 161 164
143 139 135 135 132 126 115 124 139 138 133 134 119 137 136 122 126 124 130 146 144 146 147 142 153 173 193 159 155 181 190 161 162 133 102 113 129 147 157 159 162 166 171
143 141 143 137 134 127 121 121 111 112 116 126 121 125 122 136 140 144 142 150 156 167 153 144 170 170 141 103 129 147 123 158 103 95 104 121 135 152 156 157 163 169 176
148 149 146 143 138 128 114 110 126 120 118 112 117 135 134 136 132 113 123 119 142 131 116 119 123 120 112 124 141 117 127 117 100 92 105 123 137 156 161 167 168 180 186
155 155 151 146 139 142 139 150 126 124 120 118 120 119 129 137 130 123 111 116 128 124 144 135 116 120 131 136 132 128 105 81 93 121 120 130 139 153 161 169 178 186 193
165 161 153 161 155 158 156 148 124 123 120 115 117 110 125 115 108 120 128 131 130 137 110 125 125 134 136 123 131 132 143 145 139 170 142 144 152 155 157 164 176 182 193
171 168 165 168 160 163 162 159 149 151 136 123 119 119 128 123 119 136 130 149 117 131 144 149 133 144 154 148 147 149 154 162 147 167 179 161 153 155 155 166 185 194 198
177 172 178 177 163 162 167 164 153 145 133 137 138 132 131 117 139 155 131 113 115 155 154 140 154 142 139 150 146 154 145 152 165 177 180 174 159 153 157 160 174 185 199
182 179 179 182 171 168 162 166 164 149 150 152 152 144 135 141 138 151 108 94 172 152 129 144 112 147 153 156 173 156 158 160 170 178 175 178 164 184 157 149 167 177 192
181 182 182 183 177 175 170 169 171 163 170 167 158 137 150 147 138 145 137 131 188 131 109 84 115 119 191 192 200 134 159 159 172 155 199 181 181 186 182 169 180 175 176
183 183 186 188 177 182 183 186 179 176 177 167 164 144 167 159 148 177 128 134 188 110 101 132 166 163 199 184 191 165 163 174 165 167 199 205 175 189 189 194 229 222 166
186 187 187 190 186 190 185 187 185 173 175 165 164 151 183 177 182 171 152 171 128 125 136 142 189 234 197 217 250 216 184 165 184 162 180 196 206 205 202 189 179 195 288
190 190 190 190 187 192 184 182 174 166 177 171 176 174 185 192 194 174 154 147 149 190 142 170 191 210 223 221 286 292 282 164 147 158 176 169 199 234 228 220 204 186 219
193 190 189 188 188 186 185 190 186 187 186 181 188 179 181 190 189 172 162 151 190 176 146 202 157 230 233 230 206 294 325 349 290 167 175 164 186 221 242 264 235 190 210
190 186 185 184 185 184 189 190 196 199 192 183 183 176 190 179 189 182 168 172 188 205 163 211 168 238 233 254 256 230 231 233 270 281 236 201 196 206 219 253 276 259 233
188 185 183 179 182 182 186 189 196 197 197 190 188 180 190 181 187 183 183 183 190 182 176 195 198 200 242 262 277 273 260 266 269 277 271 250 248 221 223 250 267 276 262